DW9408 Weather Reports


Display with metric or nautical units.
time (UTC)temp
F
wind
direction
speed
MPH
gust
MPH
rain 1hr
in
rain 24hr
in
rain mn
in
humidity
%
barometer
mb
20260510151057 74 305 0.0 1.0 0.00 0.00 0.00 57 1016.3
20260510150552 74 0 0.0 1.0 0.00 0.00 0.00 58 1016.4
20260510150045 74 0 0.0 4.0 0.00 0.00 0.00 63 1016.3
20260510145540 74 5 0.0 4.0 0.00 0.00 0.00 62 1016.4
20260510145306 74 321 0.0 0.0 0.00 0.00 0.00 65 1016.3
20260510144528 74 321 0.0 2.0 0.00 0.00 0.00 63 1016.4
20260510144254 73 317 0.0 5.0 0.00 0.00 0.00 64 1016.3
20260510143516 73 13 0.0 5.0 0.00 0.00 0.00 62 1016.3
20260510143009 73 299 0.0 1.0 0.00 0.00 0.00 70 1016.3
20260510142736 72 355 0.0 1.0 0.00 0.00 0.00 67 1016.4
20260510141958 72 355 0.0 1.0 0.00 0.00 0.00 66 1016.4
20260510141452 71 355 0.0 3.0 0.00 0.00 0.00 72 1016.4
20260510140947 71 355 0.0 3.0 0.00 0.00 0.00 72 1016.4
20260510140439 71 22 0.0 3.0 0.00 0.00 0.00 74 1016.4
20260510135933 70 21 0.0 3.0 0.00 0.00 0.00 73 1016.4
20260510135428 70 24 0.0 2.0 0.00 0.00 0.00 77 1016.3
20260510135153 69 16 0.0 2.0 0.00 0.00 0.00 78 1016.3
20260510133910 68 58 0.0 0.0 0.00 0.00 0.00 82 1016.2
20260510133634 68 196 0.0 0.0 0.00 0.00 0.00 83 1016.1
20260510132859 67 175 0.0 0.0 0.00 0.00 0.00 85 1016.2
20260510132631 66 180 0.0 0.0 0.00 0.00 0.00 86 1016.1
20260510131900 65 181 0.0 0.0 0.00 0.00 0.00 90 1016.1
20260510131357 64 180 0.0 0.0 0.00 0.00 0.00 91 1016.1
20260510131130 64 180 0.0 0.0 0.00 0.00 0.00 95 1016.1
20260510130359 62 180 0.0 0.0 0.00 0.00 0.00 96 1016.1
20260510125854 62 180 0.0 0.0 0.00 0.00 0.00 98 1016.1
20260510125356 61 239 0.0 0.0 0.00 0.00 0.00 100 1016.0
20260510124855 60 239 0.0 0.0 0.00 0.00 0.00 100 1016.1
20260510124624 60 239 0.0 0.0 0.00 0.00 0.00 100 1016.0
20260510123851 59 239 0.0 0.0 0.00 0.00 0.00 100 1016.0
20260510123350 59 239 0.0 0.0 0.00 0.00 0.00 100 1016.0
20260510122847 58 239 0.0 0.0 0.00 0.00 0.00 100 1016.0
20260510122618 57 239 0.0 0.0 0.00 0.00 0.00 100 1015.8
20260510121843 56 239 0.0 0.0 0.00 0.00 0.00 100 1015.8
20260510121341 55 239 0.0 0.0 0.00 0.00 0.00 100 1015.7
20260510120842 53 239 0.0 0.0 0.00 0.00 0.00 100 1015.6
20260510120343 52 239 0.0 0.0 0.00 0.00 0.00 100 1015.6
20260510115839 51 239 0.0 0.0 0.00 0.00 0.00 100 1015.5
20260510115342 51 239 0.0 0.0 0.00 0.00 0.00 100 1015.4
20260510114832 51 239 0.0 0.0 0.00 0.00 0.00 100 1015.4
20260510114334 50 239 0.0 0.0 0.00 0.00 0.00 100 1015.3
20260510113833 50 239 0.0 0.0 0.00 0.00 0.00 99 1015.2
20260510113331 50 239 0.0 0.0 0.00 0.00 0.00 99 1015.1
20260510112832 50 239 0.0 0.0 0.00 0.00 0.00 99 1015.1
20260510112604 50 239 0.0 0.0 0.00 0.00 0.00 99 1015.0
20260510111830 49 239 0.0 0.0 0.00 0.00 0.00 99 1014.9
20260510111602 49 239 0.0 0.0 0.00 0.00 0.00 99 1014.9
20260510110831 49 239 0.0 0.0 0.00 0.00 0.00 99 1014.8
20260510110332 49 239 0.0 0.0 0.00 0.00 0.00 99 1014.7
20260510105828 49 239 0.0 0.0 0.00 0.00 0.00 99 1014.8
20260510105326 49 239 0.0 0.0 0.00 0.00 0.00 98 1014.8
20260510104826 49 239 0.0 0.0 0.00 0.00 0.00 98 1014.6
20260510104327 49 239 0.0 0.0 0.00 0.00 0.00 98 1014.6
20260510103328 50 239 0.0 0.0 0.00 0.00 0.00 98 1014.5
20260510102828 50 239 0.0 0.0 0.00 0.00 0.00 98 1014.4
20260510102326 50 239 0.0 0.0 0.00 0.00 0.00 98 1014.3
20260510101828 50 239 0.0 0.0 0.00 0.00 0.00 98 1014.2
20260510101321 50 239 0.0 0.0 0.00 0.00 0.00 98 1014.1
20260510101047 50 239 0.0 0.0 0.00 0.00 0.00 98 1014.0
20260510100308 50 239 0.0 0.0 0.00 0.00 0.00 98 1013.9
20260510095803 51 239 0.0 0.0 0.00 0.00 0.00 98 1013.8
20260510095257 51 239 0.0 0.0 0.00 0.00 0.00 98 1013.8
20260510094751 51 239 0.0 0.0 0.00 0.00 0.00 98 1013.7
20260510094516 51 239 0.0 0.0 0.00 0.00 0.00 98 1013.7
20260510093739 51 239 0.0 0.0 0.00 0.00 0.00 98 1013.7
20260510093233 52 239 0.0 0.0 0.00 0.00 0.00 98 1013.6
20260510092727 52 239 0.0 0.0 0.00 0.00 0.00 98 1013.5
20260510092221 52 239 0.0 0.0 0.00 0.00 0.00 98 1013.4
20260510091715 52 239 0.0 0.0 0.00 0.00 0.00 98 1013.4
20260510091208 52 239 0.0 0.0 0.00 0.00 0.00 98 1013.4
20260510090704 52 239 0.0 0.0 0.00 0.00 0.00 99 1013.3
20260510090157 52 239 0.0 0.0 0.00 0.00 0.00 98 1013.3
20260510085651 52 239 0.0 0.0 0.00 0.00 0.00 98 1013.1
20260510085416 53 239 0.0 0.0 0.00 0.00 0.00 98 1013.2
20260510084639 53 239 0.0 0.0 0.00 0.00 0.00 98 1013.1
20260510084133 53 239 0.0 0.0 0.00 0.00 0.00 98 1013.0
20260510083627 53 239 0.0 0.0 0.00 0.00 0.00 98 1013.0
20260510083121 53 239 0.0 0.0 0.00 0.00 0.00 98 1012.9
20260510082614 53 239 0.0 0.0 0.00 0.00 0.00 97 1012.7
20260510082339 54 239 0.0 0.0 0.00 0.00 0.00 98 1012.8
20260510081835 54 239 0.0 0.0 0.00 0.00 0.00 98 1012.8
20260510081057 54 239 0.0 0.0 0.00 0.00 0.00 98 1012.7
20260510080552 54 239 0.0 0.0 0.00 0.00 0.00 98 1012.5
20260510080045 54 239 0.0 0.0 0.00 0.00 0.00 98 1012.5
20260510075810 54 239 0.0 0.0 0.00 0.00 0.00 98 1012.4
20260510075033 55 239 0.0 0.0 0.00 0.00 0.00 98 1012.3
20260510074527 55 239 0.0 0.0 0.00 0.00 0.00 99 1012.4
20260510074021 55 239 0.0 0.0 0.00 0.00 0.00 98 1012.5
20260510073515 55 239 0.0 0.0 0.00 0.00 0.00 98 1012.4
20260510073008 55 239 0.0 0.0 0.00 0.00 0.00 98 1012.4
20260510072733 55 239 0.0 0.0 0.00 0.00 0.00 98 1012.3
20260510071956 55 239 0.0 0.0 0.00 0.00 0.00 98 1012.3
20260510071450 55 239 0.0 0.0 0.00 0.00 0.00 98 1012.3
20260510071217 55 239 0.0 0.0 0.00 0.00 0.00 98 1012.3
20260510070438 56 239 0.0 0.0 0.00 0.00 0.00 98 1012.2
20260510070206 56 239 0.0 0.0 0.00 0.00 0.00 98 1012.3
20260510065427 56 239 0.0 0.0 0.00 0.00 0.00 98 1012.3
20260510064415 56 239 0.0 0.0 0.00 0.00 0.00 97 1012.3
20260510063909 56 239 0.0 0.0 0.00 0.00 0.00 97 1012.3
20260510062857 56 239 0.0 0.0 0.00 0.00 0.00 98 1012.3
20260510062350 57 239 0.0 0.0 0.00 0.00 0.00 97 1012.3
20260510061845 57 239 0.0 0.0 0.00 0.00 0.00 97 1012.3
20260510061339 57 239 0.0 0.0 0.00 0.00 0.00 97 1012.4
20260510060833 58 239 0.0 0.0 0.00 0.00 0.00 98 1012.4
20260510060327 58 239 0.0 0.0 0.00 0.00 0.00 98 1012.4
20260510055820 58 239 0.0 0.0 0.00 0.00 0.00 98 1012.5
20260510055321 58 239 0.0 0.0 0.00 0.00 0.00 98 1012.4
20260510054818 58 239 0.0 0.0 0.00 0.00 0.00 98 1012.4
20260510054316 58 239 0.0 0.0 0.00 0.00 0.00 98 1012.5
20260510053815 58 239 0.0 0.0 0.00 0.00 0.00 98 1012.4
20260510053311 58 239 0.0 0.0 0.00 0.00 0.00 97 1012.4
20260510052811 58 239 0.0 0.0 0.00 0.00 0.00 97 1012.4
20260510052543 58 239 0.0 0.0 0.00 0.00 0.00 97 1012.3
20260510051813 58 239 0.0 0.0 0.00 0.00 0.00 97 1012.3
20260510051309 59 239 0.0 0.0 0.00 0.00 0.00 97 1012.3
20260510050806 59 239 0.0 0.0 0.00 0.00 0.00 97 1012.3
20260510050304 59 239 0.0 0.0 0.00 0.00 0.00 96 1012.4
20260510050035 59 239 0.0 0.0 0.00 0.00 0.00 96 1012.4
20260510045306 59 239 0.0 0.0 0.00 0.00 0.00 96 1012.4
20260510044803 59 239 0.0 0.0 0.00 0.00 0.00 96 1012.4
20260510044259 60 239 0.0 0.0 0.00 0.00 0.00 96 1012.4
20260510043759 60 239 0.0 0.0 0.00 0.00 0.00 95 1012.5
20260510043301 60 239 0.0 0.0 0.00 0.00 0.00 96 1012.4
20260510042801 60 239 0.0 0.0 0.00 0.00 0.00 96 1012.3
20260510042259 60 239 0.0 0.0 0.00 0.00 0.00 95 1012.3
20260510041758 60 239 0.0 0.0 0.00 0.00 0.00 94 1012.3
20260510041256 61 239 0.0 0.0 0.00 0.00 0.00 93 1012.5
20260510040757 61 239 0.0 0.0 0.00 0.00 0.00 93 1012.4
20260510040256 62 239 0.0 0.0 0.00 0.00 0.00 92 1012.3
20260510035752 62 239 0.0 0.0 0.00 0.00 0.00 92 1012.2
20260510035253 63 239 0.0 0.0 0.00 0.00 0.00 93 1012.4
20260510035025 63 239 0.0 0.0 0.00 0.00 0.00 93 1012.4
20260510034254 63 239 0.0 0.0 0.00 0.00 0.00 93 1012.4
20260510033753 63 239 0.0 0.0 0.00 0.00 0.00 92 1012.3
20260510033254 63 239 0.0 0.0 0.00 0.00 0.00 91 1012.4
20260510032751 64 239 0.0 0.0 0.00 0.00 0.00 91 1012.4
20260510032248 64 239 0.0 0.0 0.00 0.00 0.00 90 1012.5
20260510031749 64 239 0.0 0.0 0.00 0.00 0.00 89 1012.4
20260510031250 65 239 0.0 0.0 0.00 0.00 0.00 88 1012.3
20260510030750 65 239 0.0 0.0 0.00 0.00 0.00 89 1012.5
20260510030251 65 239 0.0 0.0 0.00 0.00 0.00 88 1012.5
20260510025752 65 227 0.0 0.0 0.00 0.00 0.00 88 1012.4
20260510025256 66 227 0.0 1.0 0.00 0.00 0.00 88 1012.4
20260510024752 66 226 0.0 1.0 0.00 0.00 0.00 88 1012.4
20260510024245 66 225 0.0 1.0 0.00 0.00 0.00 87 1012.2
20260510023742 66 225 0.0 1.0 0.00 0.00 0.00 88 1012.3
20260510023233 66 205 0.0 0.0 0.00 0.00 0.00 88 1012.2
20260510022727 66 205 0.0 2.0 0.00 0.00 0.00 88 1012.1
20260510022221 66 205 0.0 4.0 0.00 0.00 0.00 88 1012.2
20260510021715 66 208 0.0 4.0 0.00 0.00 0.00 88 1012.1
20260510021209 66 233 0.0 1.0 0.00 0.00 0.00 88 1012.1
20260510020704 66 237 0.0 1.0 0.00 0.00 0.00 87 1012.1
20260510020157 66 237 0.0 4.0 0.00 0.00 0.00 87 1011.9
20260510015652 66 190 0.0 4.0 0.00 0.00 0.00 87 1011.8
20260510015145 66 223 0.0 0.0 0.00 0.00 0.00 87 1011.7
20260510014639 66 223 0.0 3.0 0.00 0.00 0.00 87 1011.5
20260510014133 66 225 0.0 3.0 0.00 0.00 0.00 87 1011.5
20260510013628 66 157 0.0 3.0 0.00 0.00 0.00 87 1011.4
20260510013121 66 198 0.0 2.0 0.00 0.00 0.00 87 1011.4
20260510012615 66 226 0.0 0.0 0.00 0.00 0.00 87 1011.4
20260510012109 66 226 0.0 2.0 0.00 0.00 0.00 87 1011.4
20260510011603 66 226 0.0 2.0 0.00 0.00 0.00 87 1011.4
20260510011058 66 192 0.0 0.0 0.00 0.00 0.00 87 1011.2
20260510010551 66 192 0.0 2.0 0.00 0.00 0.00 87 1011.1
20260510010317 67 193 0.0 2.0 0.00 0.00 0.00 86 1011.1
20260510005034 67 194 0.0 4.0 0.00 0.00 0.00 85 1011.1
20260510004527 67 206 0.0 0.0 0.00 0.00 0.00 85 1010.9
20260510004021 67 206 0.0 0.0 0.00 0.00 0.00 84 1010.8
20260510003516 68 206 0.0 0.0 0.00 0.00 0.00 84 1010.8
20260510003011 68 206 0.0 0.0 0.00 0.00 0.00 82 1010.8
20260510002504 68 206 0.0 0.0 0.00 0.00 0.00 82 1010.7
20260510001957 69 207 0.0 0.0 0.00 0.00 0.00 82 1010.5
20260510001451 69 206 0.0 0.0 0.00 0.00 0.00 82 1010.5
20260510000945 69 206 0.0 0.0 0.00 0.00 0.00 81 1010.4
20260510000441 69 206 0.0 5.0 0.00 0.00 0.00 81 1010.3
20260509235934 69 206 1.0 5.0 0.00 0.00 0.00 80 1010.3
20260509235428 70 205 1.0 4.0 0.00 0.00 0.00 80 1010.2
20260509234921 70 219 1.0 5.0 0.00 0.00 0.00 79 1010.1
20260509234415 70 189 1.0 6.0 0.00 0.00 0.00 79 1010.0
20260509234140 70 221 1.0 6.0 0.00 0.00 0.00 79 1010.0
20260509233403 71 202 1.0 4.0 0.00 0.00 0.00 78 1009.9
20260509232857 71 185 0.0 5.0 0.00 0.00 0.00 78 1009.9
20260509232351 71 190 1.0 6.0 0.00 0.00 0.00 78 1009.9
20260509231845 71 215 1.0 6.0 0.00 0.00 0.00 78 1009.9
20260509231339 71 223 1.0 5.0 0.00 0.00 0.00 78 1009.9
20260509230833 71 227 2.0 9.0 0.00 0.00 0.00 77 1009.7
20260509230328 71 197 2.0 9.0 0.00 0.00 0.00 76 1009.8
20260509225821 71 225 1.0 7.0 0.00 0.00 0.00 76 1009.8
20260509225316 71 180 0.0 5.0 0.00 0.00 0.00 76 1009.7
20260509225040 72 198 0.0 3.0 0.00 0.00 0.00 75 1009.6
20260509224304 72 205 1.0 7.0 0.00 0.00 0.00 75 1009.6
20260509223757 72 180 1.0 7.0 0.00 0.00 0.00 75 1009.6
20260509223251 72 213 2.0 9.0 0.00 0.00 0.00 74 1009.7
20260509223016 72 244 2.0 9.0 0.00 0.00 0.00 75 1009.7
20260509222239 73 232 1.0 7.0 0.00 0.00 0.00 76 1009.6
20260509221733 73 211 1.0 7.0 0.00 0.00 0.00 75 1009.7
20260509221228 72 261 1.0 7.0 0.00 0.00 0.00 74 1009.5
20260509220721 73 220 0.0 4.0 0.00 0.00 0.00 74 1009.3
20260509220221 73 227 1.0 10.0 0.00 0.00 0.00 74 1009.3
20260509215721 73 217 2.0 10.0 0.00 0.00 0.00 74 1009.4
20260509215219 73 209 1.0 7.0 0.00 0.00 0.00 75 1009.3
20260509214719 73 222 1.0 6.0 0.00 0.00 0.00 74 1009.3
20260509214219 73 205 1.0 6.0 0.00 0.00 0.00 73 1009.2
20260509213715 73 265 1.0 10.0 0.00 0.00 0.00 72 1009.2
20260509213216 73 191 0.0 10.0 0.00 0.00 0.00 72 1009.1
20260509212716 73 219 1.0 5.0 0.00 0.00 0.00 72 1009.1
20260509212217 73 218 2.0 9.0 0.00 0.00 0.00 73 1009.1
20260509211716 73 221 1.0 9.0 0.00 0.00 0.00 73 1009.0
20260509211446 73 233 1.0 4.0 0.00 0.00 0.00 74 1009.0
20260509210716 73 194 1.0 5.0 0.00 0.00 0.00 74 1009.0
20260509210217 73 214 1.0 7.0 0.00 0.00 0.00 73 1009.1
20260509205715 72 234 1.0 7.0 0.00 0.00 0.00 72 1009.2
20260509205215 73 214 1.0 11.0 0.00 0.00 0.00 72 1009.2
20260509204946 73 234 2.0 11.0 0.00 0.00 0.00 72 1009.1
20260509204210 73 215 1.0 11.0 0.00 0.00 0.00 73 1009.1
20260509203711 73 255 1.0 6.0 0.00 0.00 0.00 73 1009.1
20260509203210 73 190 1.0 6.0 0.00 0.00 0.00 73 1009.2
20260509202710 73 213 2.0 6.0 0.00 0.00 0.00 72 1009.3
20260509202440 73 198 3.0 14.0 0.00 0.00 0.00 73 1009.1
20260509201709 72 173 3.0 14.0 0.00 0.00 0.00 72 1009.2
20260509201210 72 223 3.0 12.0 0.00 0.00 0.00 72 1009.4
20260509200710 72 225 2.0 10.0 0.00 0.00 0.00 73 1009.4
20260509200211 73 200 1.0 7.0 0.00 0.00 0.00 73 1009.3
20260509195938 73 197 2.0 8.0 0.00 0.00 0.00 72 1009.2
20260509195206 73 174 3.0 9.0 0.00 0.00 0.00 72 1009.4
20260509194939 72 250 4.0 9.0 0.00 0.00 0.00 72 1009.4
20260509194206 72 211 4.0 9.0 0.00 0.00 0.00 72 1009.3
20260509193705 72 202 2.0 9.0 0.00 0.00 0.00 71 1009.2
20260509193205 73 198 1.0 7.0 0.00 0.00 0.00 71 1009.3
20260509192707 73 244 2.0 12.0 0.00 0.00 0.00 71 1009.6
20260509192436 73 209 1.0 12.0 0.00 0.00 0.00 71 1009.5
20260509191939 73 227 1.0 8.0 0.00 0.00 0.00 71 1009.4
20260509191200 72 230 3.0 13.0 0.00 0.00 0.00 71 1009.5
20260509190654 72 190 4.0 13.0 0.00 0.00 0.00 71 1009.6
20260509190147 73 225 3.0 13.0 0.00 0.00 0.00 71 1009.7
20260509185643 73 234 2.0 13.0 0.00 0.00 0.00 71 1009.6
20260509185144 73 233 1.0 11.0 0.00 0.00 0.00 72 1009.6
20260509184643 73 176 2.0 11.0 0.00 0.00 0.00 72 1009.5
20260509184413 73 302 2.0 12.0 0.00 0.00 0.00 71 1009.4
20260509183642 73 232 3.0 12.0 0.00 0.00 0.00 73 1009.5
20260509183141 72 243 5.0 17.0 0.00 0.00 0.00 74 1009.8
20260509182642 72 168 5.0 17.0 0.00 0.00 0.00 72 1010.0
20260509182143 72 232 2.0 10.0 0.00 0.00 0.00 73 1010.0
20260509181643 72 264 0.0 6.0 0.00 0.00 0.00 76 1010.0
20260509181139 71 260 2.0 9.0 0.00 0.00 0.00 76 1010.0
20260509180640 71 191 3.0 10.0 0.00 0.00 0.00 76 1010.1
20260509180138 71 223 3.0 13.0 0.00 0.00 0.00 76 1010.0
20260509175636 71 173 3.0 13.0 0.00 0.00 0.00 73 1010.1
20260509175135 72 177 3.0 12.0 0.00 0.00 0.00 76 1010.1
20260509174637 71 202 3.0 11.0 0.00 0.00 0.00 78 1010.2
20260509174408 71 161 2.0 11.0 0.00 0.00 0.00 76 1010.2
20260509173636 71 265 4.0 14.0 0.00 0.00 0.00 77 1010.3
20260509173130 70 179 4.0 14.0 0.00 0.00 0.00 75 1010.4
20260509172624 70 246 3.0 10.0 0.00 0.00 0.00 77 1010.4
20260509172117 70 247 3.0 13.0 0.00 0.00 0.00 78 1010.5
20260509171612 70 211 5.0 16.0 0.00 0.00 0.00 76 1010.6
20260509171106 69 254 5.0 16.0 0.00 0.00 0.00 76 1010.7
20260509170600 70 229 2.0 12.0 0.00 0.00 0.00 78 1010.8
20260509170325 69 206 2.0 9.0 0.00 0.00 0.00 80 1010.9
20260509165548 68 224 3.0 16.0 0.00 0.00 0.00 79 1010.8
20260509165042 68 212 4.0 16.0 0.00 0.00 0.00 79 1010.9
20260509164536 68 248 4.0 14.0 0.00 0.00 0.00 79 1011.0
20260509163524 68 169 4.0 11.0 0.00 0.00 0.00 79 1011.0
20260509163018 68 240 5.0 16.0 0.00 0.00 0.00 81 1011.1
20260509162512 67 205 5.0 16.0 0.00 0.00 0.00 80 1011.1
20260509162005 67 155 4.0 15.0 0.00 0.00 0.00 80 1011.1
20260509161459 67 223 5.0 13.0 0.00 0.00 0.00 81 1011.2
20260509160954 67 206 6.0 16.0 0.00 0.00 0.00 81 1011.3
20260509160448 67 172 5.0 16.0 0.00 0.00 0.00 81 1011.3
20260509160215 66 212 5.0 13.0 0.00 0.00 0.00 81 1011.5
20260509155435 66 202 4.0 13.0 0.00 0.00 0.00 80 1011.5
20260509154930 66 235 3.0 9.0 0.00 0.00 0.00 81 1011.5
20260509154424 66 229 2.0 9.0 0.00 0.00 0.00 83 1011.7
20260509153918 66 215 1.0 8.0 0.00 0.00 0.00 85 1011.9
20260509153411 65 209 2.0 7.0 0.00 0.00 0.00 83 1011.8
20260509152907 65 237 4.0 10.0 0.00 0.00 0.00 85 1011.9
20260509152631 65 180 4.0 10.0 0.00 0.00 0.00 83 1011.8
20260509151854 64 196 3.0 9.0 0.00 0.00 0.00 86 1011.8
20260509151619 64 191 3.0 7.0 0.00 0.00 0.00 87 1011.7